Regional Weather Roundup
Issued by NWS

Home | Current Version | Previous Version | Graphics & Text | Print | Product List | Glossary On
Versions: 1 2 3 4 5 6 7 8 9 10 11 12 13 14 15 16 17 18 19 20 21 22 23 24 25 26 27 28 29 30 31 32 33 34 35 36 37 38 39 40 41 42 43 44 45 46 47 48 49 50
517
ASUS43 KIND 060709
RWRIN

WEATHER ROUNDUP FOR INDIANA
NATIONAL WEATHER SERVICE INDIANAPOLIS IN
300 AM EDT FRI MAY 06 2016

NOTE: "FAIR" INDICATES FEW OR NO CLOUDS BELOW 12,000 FEET WITH NO
SIGNIFICANT WEATHER AND/OR OBSTRUCTIONS TO VISIBILITY.

* - STATION DOES NOT REPORT WEATHER SUCH AS PRECIPITATION OR FOG.

+ - STATION NOT QUALITY CONTROLLED BY THE NATIONAL WEATHER SERVICE.
    USE DATA WITH CAUTION...ESPECIALLY DEWPOINT AND RELATIVE
    HUMIDITY OBSERVATIONS.

INZ001>003-010>013-019-020-060800-
NORTHWEST INDIANA

CITY           SKY/WX    TMP DP  RH WIND       PRES   REMARKS
GARY /AIRPORT/ CLEAR     40  40 100 CALM      29.99S
KNOX *+        CLEAR     37  36  93 CALM      29.98S
LA PORTE +     CLEAR     40  40 100 CALM      29.98F
MICHIGAN CITY+ CLEAR     36  36 100 CALM      29.99S
MONTICELLO +   CLEAR     43  38  83 CALM      29.97F
RENSSELAER +   CLEAR     43  41  93 CALM      29.99S
VALPARAISO     CLEAR     41  39  93 W3        29.98F

$$

LMZ046-743>745-060800-
SOUTHERN LAKE MICHIGAN

STATION/POSITION TIME  TEMP    WIND        PRES    WAVE
                       AIR SEA DIR/SP/G            HT
                 (UTC) (F)     (DEG/KT/KT) (MB)    (FT)
BURNS HARBOR     0600   45     200/  2/  4 1015.9F
MICHIGAN CITY    0600   43     150/  2/  2   N/A

$$

INZ004-005-014>016-021>024-060800-
NORTH CENTRAL INDIANA

CITY           SKY/WX    TMP DP  RH WIND       PRES   REMARKS
GOSHEN         CLEAR     42  36  79 NW3       29.96S
LOGANSPORT +   CLEAR     45  39  81 CALM      29.98S
PERU/GRISSOM   CLEAR     43  41  93 W3        29.95F
ROCHESTER +    CLEAR     45  41  87 W3        29.97S
SOUTH BEND     CLEAR     40  37  89 CALM      29.97F
WARSAW +       CLEAR     41  37  87 W3        29.96S

$$

INZ006>009-017-018-025>027-060800-
NORTHEAST INDIANA

CITY           SKY/WX    TMP DP  RH WIND       PRES   REMARKS
ANGOLA *+        N/A     46  39  76 NW3       29.94S
AUBURN +       CLEAR     45  37  76 NW5       29.95S
FORT WAYNE     CLEAR     48  39  71 NW7       29.95S
HUNTINGTON +   CLEAR    N/A N/A N/A CALM      29.95S

$$

INZ028-029-035-036-043>045-051>053-060800-
WEST CENTRAL INDIANA

CITY           SKY/WX    TMP DP  RH WIND       PRES   REMARKS
CRAWFORDSVL +  CLEAR     41  41 100 W5        29.99S
GREENCASTLE +  CLEAR     48  43  81 NW5       29.99R
LAFAYETTE      CLEAR     40  39  97 W3        29.99S
TERRE HAUTE    CLEAR     46  42  86 NW3       29.99S

$$

INZ030>032-037>040-046>048-054>057-064-065-060800-
CENTRAL INDIANA

CITY           SKY/WX    TMP DP  RH WIND       PRES   REMARKS
CP ATTERBURY + CLEAR     43  41  93 CALM      29.97S
FISHERS *+     CLEAR     43  43 100 CALM      29.96S
FRANKFORT +      N/A     44  35  69 CALM      29.99F
GREENWOOD *+   CLEAR     46  41  81 CALM      29.97S
INDIANAPOLIS   PTCLDY    45  39  79 NW7       29.96S
-EAGLE CREEK   CLEAR     49  41  74 NW8       29.96S
KOKOMO *+      CLEAR     43  37  81 NW7       29.96F
MARION +       CLEAR     45  40  83 NW3       29.96S
SHELBYVILLE    CLEAR     49  42  77 N6        29.95S
ZIONSVILLE +   CLEAR     45  41  84 NW7       29.98R

$$

INZ033-034-041-042-049-050-058-059-060800-
EAST CENTRAL INDIANA

CITY           SKY/WX    TMP DP  RH WIND       PRES   REMARKS
MUNCIE         CLEAR     47  40  76 NW5       29.95S

$$

INZ060-061-067>069-081>083-085>088-060800-
SOUTHWEST INDIANA

CITY           SKY/WX    TMP DP  RH WIND       PRES   REMARKS
EVANSVILLE     CLEAR     47  42  83 CALM      29.99F
HUNTINGBURG *+ CLEAR     48  43  81 CALM      29.98F
WASHINGTON +   CLEAR     48  44  86 NW3       29.98S

$$

INZ062-063-066-070>080-084-089>092-060800-
SOUTH CENTRAL AND SOUTHEAST INDIANA

CITY           SKY/WX    TMP DP  RH WIND       PRES   REMARKS
BEDFORD +      CLEAR     48  48 100 CALM      29.96F
BLOOMINGTON    CLEAR     46  41  82 N3        29.97F
MADISON *+     CLEAR     50  43  76 CALM      29.96S
NORTH VERNON + CLEAR     48  48 100 CALM      29.95F
SEYMOUR +      CLEAR     48  45  87 CALM      29.96S

$$





USA.gov is the U.S. government's official web portal to all federal, state and local government web resources and services.